Weather History for Cairo, IL

Change the Weather History Date:

Monday, December 2, 2013

  Actual Average Record
Temperature  
Mean Temperature 48 °F -  
Max Temperature 62 °F 51 °F 79 °F (1982)
Min Temperature 33 °F 35 °F 17 °F (1985)
Degree Days  
Heating Degree Days 18    
Moisture  
Dew Point 41 °F    
Average Humidity 81    
Maximum Humidity 92    
Minimum Humidity 58    
Precipitation  
Precipitation 0.00 in - - ()
Sea Level Pressure  
Sea Level Pressure 29.80 in    
Wind  
Wind Speed 1 mph (SSE)    
Max Wind Speed 12 mph    
Max Gust Speed -    
Visibility 8 miles    
Events Fog    
Averages and records for this station are not official NWS values.
T = Trace of Precipitation, MM = Missing Value Source: NWS Daily Summary

Daily Weather History Graph

Daily Weather History Graph

Search for Another Location

Airport:

Trip Planner

Search our weather history database for the weather conditions in past years. The results will help you decide how hot, cold, wet, or windy it might be!

Date:

Astronomy

Dec. 02, 2013 Rise Set
Actual Time 6:52 AM CST 4:39 PM CST
Civil Twilight 6:24 AM CST 5:08 PM CST
Nautical Twilight 5:51 AM CST 5:40 PM CST
Astronomical Twilight 5:20 AM CST 6:12 PM CST
Moon 6:18 AM CST (12/2) 4:42 PM CST (12/2)
Length of Visible Light 10h 44m
Length of Day
9h 47m
Waning Crescent, 0% of the Moon is Illuminated
Dec 2
Waning Crescent
Dec 2
New
Dec 9
First Quarter
Dec 17
Full
Dec 25
Last Quarter

Hourly Weather History & Observations

Time (CST) Temp. Dew Point Humidity Pressure Visibility Wind Dir Wind Speed Gust Speed Precip Events Conditions
12:15 AM 35.6 °F 32.5 °F 89% 29.91 in 7.0 mi Calm Calm - N/A   Clear
12:35 AM 35.4 °F 32.5 °F 89% 29.90 in 1.5 mi Calm Calm - N/A   Mist
12:55 AM 33.6 °F 31.5 °F 92% 29.91 in 7.0 mi Calm Calm - N/A   Scattered Clouds
1:15 AM 34.2 °F 32.0 °F 92% 29.90 in 5.0 mi Calm Calm - N/A   Scattered Clouds
1:35 AM 34.3 °F 32.0 °F 91% 29.90 in 7.0 mi Calm Calm - N/A   Clear
1:55 AM 34.9 °F 32.2 °F 90% 29.90 in 7.0 mi Calm Calm - N/A   Scattered Clouds
2:15 AM 36.1 °F 33.8 °F 91% 29.89 in 7.0 mi Calm Calm - N/A   Clear
2:35 AM 34.7 °F 32.0 °F 90% 29.89 in 7.0 mi Calm Calm - N/A   Clear
2:55 AM 33.6 °F 31.6 °F 92% 29.89 in 7.0 mi Calm Calm - N/A   Clear
3:15 AM 33.4 °F 31.5 °F 92% 29.88 in 4.0 mi Calm Calm - N/A   Scattered Clouds
3:35 AM 33.8 °F 31.8 °F 92% 29.88 in 7.0 mi Calm Calm - N/A   Overcast
3:55 AM 36.3 °F 33.8 °F 91% 29.87 in 7.0 mi Calm Calm - N/A   Overcast
4:15 AM 37.9 °F 35.6 °F 91% 29.87 in 7.0 mi Calm Calm - N/A   Overcast
4:35 AM 39.2 °F 36.5 °F 90% 29.86 in 7.0 mi Calm Calm - N/A   Overcast
4:55 AM 39.6 °F 37.0 °F 91% 29.86 in 7.0 mi Calm Calm - N/A   Overcast
5:15 AM 39.6 °F 37.0 °F 91% 29.85 in 7.0 mi Calm Calm - N/A   Overcast
5:35 AM 38.7 °F 36.1 °F 91% 29.86 in 7.0 mi Calm Calm - N/A   Mostly Cloudy
5:55 AM 38.7 °F 36.1 °F 91% 29.86 in 7.0 mi Calm Calm - N/A   Overcast
6:15 AM 39.7 °F 37.2 °F 91% 29.85 in 7.0 mi Calm Calm - N/A   Overcast
6:35 AM 40.1 °F 37.4 °F 90% 29.85 in 7.0 mi Calm Calm - N/A   Overcast
6:55 AM 40.6 °F 37.9 °F 90% 29.84 in 7.0 mi Calm Calm - N/A   Overcast
7:15 AM 40.8 °F 38.1 °F 90% 29.85 in 5.0 mi Calm Calm - N/A   Overcast
7:35 AM 41.9 °F 39.2 °F 90% 29.85 in 5.0 mi Calm Calm - N/A   Overcast
7:55 AM 43.0 °F 40.1 °F 90% 29.84 in 7.0 mi Calm Calm - N/A   Overcast
8:15 AM 44.4 °F 41.4 °F 89% 29.84 in 7.0 mi Calm Calm - N/A   Overcast
8:35 AM 46.0 °F 42.8 °F 88% 29.84 in 7.0 mi Calm Calm - N/A   Overcast
8:55 AM 47.8 °F 44.2 °F 87% 29.84 in 10.0 mi Calm Calm - N/A   Overcast
9:15 AM 49.1 °F 44.8 °F 85% 29.84 in 10.0 mi Calm Calm - N/A   Overcast
9:35 AM 50.9 °F 45.1 °F 81% 29.84 in 10.0 mi South 3.5 mph - N/A   Overcast
9:55 AM 51.6 °F 44.6 °F 77% 29.84 in 10.0 mi Calm Calm - N/A   Overcast
10:15 AM 52.7 °F 44.6 °F 74% 29.83 in 10.0 mi South 3.5 mph - N/A   Overcast
10:35 AM 53.6 °F 45.0 °F 73% 29.82 in 10.0 mi SE 4.6 mph - N/A   Mostly Cloudy
10:55 AM 54.9 °F 45.5 °F 71% 29.81 in 10.0 mi Calm Calm - N/A   Scattered Clouds
11:15 AM 57.2 °F 45.7 °F 65% 29.80 in 10.0 mi SSE 3.5 mph - N/A   Scattered Clouds
11:35 AM 58.1 °F 46.2 °F 65% 29.79 in 10.0 mi SSE 4.6 mph - N/A   Clear
11:55 AM 59.0 °F 46.0 °F 62% 29.78 in 10.0 mi SSE 4.6 mph - N/A   Scattered Clouds
12:15 PM 59.2 °F 46.4 °F 63% 29.77 in 10.0 mi Calm Calm - N/A   Scattered Clouds
12:35 PM 59.5 °F 46.9 °F 63% 29.76 in 10.0 mi South 4.6 mph - N/A   Clear
12:55 PM 60.1 °F 47.7 °F 64% 29.75 in 10.0 mi South 6.9 mph - N/A   Scattered Clouds
1:15 PM 60.8 °F 47.7 °F 62% 29.74 in 10.0 mi SSE 8.1 mph - N/A   Scattered Clouds
1:35 PM 60.8 °F 47.5 °F 62% 29.73 in 10.0 mi South 6.9 mph - N/A   Clear
1:55 PM 61.7 °F 47.5 °F 60% 29.72 in 10.0 mi SSE 11.5 mph - N/A   Clear
2:15 PM 62.1 °F 47.3 °F 58% 29.72 in 10.0 mi South 8.1 mph - N/A   Clear
2:35 PM 61.2 °F 47.3 °F 60% 29.73 in 10.0 mi South 5.8 mph - N/A   Mostly Cloudy
2:55 PM 61.2 °F 47.7 °F 61% 29.73 in 10.0 mi South 4.6 mph - N/A   Overcast
3:15 PM 61.2 °F 47.7 °F 61% 29.72 in 10.0 mi South 5.8 mph - N/A   Overcast
3:35 PM 61.3 °F 47.5 °F 60% 29.73 in 10.0 mi South 3.5 mph - N/A   Overcast
3:55 PM 59.7 °F 47.3 °F 63% 29.73 in 10.0 mi South 4.6 mph - N/A   Overcast
4:15 PM 59.4 °F 47.3 °F 64% 29.73 in 10.0 mi South 3.5 mph - N/A   Overcast
4:35 PM 58.6 °F 46.9 °F 65% 29.73 in 10.0 mi Calm Calm - N/A   Mostly Cloudy
4:55 PM 57.6 °F 47.1 °F 68% 29.73 in 10.0 mi Calm Calm - N/A   Mostly Cloudy
5:15 PM 56.7 °F 46.8 °F 69% 29.73 in 10.0 mi South 4.6 mph - N/A   Mostly Cloudy
5:35 PM 54.7 °F 46.4 °F 74% 29.73 in 10.0 mi SSE 3.5 mph - N/A   Scattered Clouds
5:55 PM 53.4 °F 45.7 °F 75% 29.73 in 10.0 mi SSE 3.5 mph - N/A   Clear
6:15 PM 51.3 °F 45.0 °F 79% 29.73 in 10.0 mi Calm Calm - N/A   Clear
6:35 PM 48.6 °F 43.2 °F 82% 29.74 in 10.0 mi Calm Calm - N/A   Mostly Cloudy
6:55 PM 49.3 °F 44.2 °F 83% 29.75 in 10.0 mi Calm Calm - N/A   Scattered Clouds
7:15 PM 48.7 °F 43.9 °F 83% 29.75 in 10.0 mi Calm Calm - N/A   Clear
7:35 PM 48.2 °F 43.7 °F 84% 29.75 in 7.0 mi Calm Calm - N/A   Clear
7:55 PM 46.4 °F 42.3 °F 85% 29.76 in 5.0 mi Calm Calm - N/A   Scattered Clouds
8:15 PM 46.6 °F 43.0 °F 87% 29.76 in 0.8 mi Calm Calm - N/A   Mostly Cloudy
8:35 PM 43.2 °F 39.7 °F 88% 29.76 in 0.5 mi Calm Calm - N/A Fog Fog
8:55 PM 45.5 °F 42.3 °F 88% 29.76 in 2.5 mi Calm Calm - N/A   Overcast
9:15 PM 45.9 °F 42.8 °F 89% 29.77 in 1.8 mi Calm Calm - N/A   Overcast
9:35 PM 46.0 °F 43.0 °F 89% 29.77 in 7.0 mi Calm Calm - N/A   Mostly Cloudy
9:55 PM 46.4 °F 43.5 °F 90% 29.76 in 5.0 mi Calm Calm - N/A   Mostly Cloudy
10:15 PM 45.1 °F 42.1 °F 89% 29.76 in 4.0 mi Calm Calm - N/A   Scattered Clouds
10:35 PM 44.1 °F 41.2 °F 90% 29.76 in 4.0 mi Calm Calm - N/A   Scattered Clouds
10:55 PM 44.4 °F 41.4 °F 89% 29.75 in 5.0 mi Calm Calm - N/A   Clear
11:15 PM 43.2 °F 40.3 °F 90% 29.75 in 5.0 mi Calm Calm - N/A   Clear
11:35 PM 43.9 °F 41.0 °F 90% 29.74 in 7.0 mi Calm Calm - N/A   Clear
11:55 PM 43.2 °F 40.3 °F 90% 29.73 in 5.0 mi Calm Calm - N/A   Clear